Location: Maccacari
(45.1333°N, 11.1333°E)
Time: 22:51:50
(UTC+00:00)

Tiros 1 despin weight - Pass Details

Date: 29 January 2021
Orbit: 593 x 642 km, 48.2° (Epoch: 08 March)

Event Time Altitude Azimuth Distance (km) Brightness Sun altitude
Rises 18:18:21 0° 284° (WNW) 2,855 ? -21.1°
Reaches altitude 10° 18:21:20 10° 264° (W) 1,940 ? -21.6°
Maximum altitude 18:24:10 17° 224° (SW) 1,539 ? -22.1°
Drops below altitude 10° 18:26:58 10° 184° (S) 1,920 ? -22.6°
Enters shadow 18:28:36 - 171° (S) 2,384 ? -22.9°
